Regional Weather Roundup
Issued by NWS

Home | Current Version | Previous Version | Text Only | Print | Product List | Glossary On
Versions: 1 2 3 4 5 6 7 8 9 10 11 12 13 14 15 16 17 18 19 20 21 22 23 24 25 26 27 28 29 30 31 32 33 34 35 36 37 38 39 40 41 42 43 44 45 46 47 48 49 50
000
ASUS44 KFWD 171910
RWRTX
NORTH TEXAS HOURLY WEATHER ROUNDUP
NATIONAL WEATHER SERVICE FORT WORTH TX
100 PM CST SAT FEB 17 2018

NOTE: "FAIR" INDICATES FEW OR NO CLOUDS BELOW 12,000 FEET WITH NO
SIGNIFICANT WEATHER AND/OR OBSTRUCTIONS TO VISIBILITY.

TXZ118-119-172000-
DALLAS/FORT WORTH METROPLEX

CITY           SKY/WX    TMP DP  RH WIND       PRES   REMARKS
DFW AIRPORT    PTSUNNY   59  47  64 CALM      30.11S
DALLAS LOVE    PTSUNNY   55  47  74 VRB3      30.11F
FTW MEACHAM    FAIR      65  48  54 NW7       30.10F
DAL-EXECUTIVE  FAIR      58  47  66 VRB5      30.10F
FTW-ALLIANCE   PTSUNNY   62  48  60 NW7       30.10F
FTW-NAS-JRB    PTSUNNY   64  44  48 NW8       30.11F
FTW-SPINKS     SUNNY     61  46  59 CALM      30.12F
ARLINGTON      FAIR      58  47  66 VRB7      30.11F
GRAND PRAIRIE  SUNNY     57  46  67 SW8       30.13F
ADDISON        MOSUNNY   54  46  76 W6        30.13S
MESQUITE       MOSUNNY   52  46  82 CALM      30.13F
LANCASTER      FAIR      51  46  82 S6        30.13F
$$

TXZ091>094-102>105-117-120-121-131>134-172000-
NORTH CENTRAL TEXAS

CITY           SKY/WX    TMP DP  RH WIND       PRES   REMARKS
SHRMAN/DENISON FAIR      57  43  60 W9        30.13S
GAINESVILLE    FAIR      59  41  52 N8G16     30.14R
BOWIE          FAIR      60  41  50 NW9       30.12S
BRIDGEPORT     FAIR      61  44  54 NW9       30.13S
DECATUR        FAIR      61  43  52 NW9       30.10F
DENTON         FAIR      75  47  36 W8        30.11S
MCKINNEY       PTSUNNY   53  47  79 W10       30.13S
BONHAM         PTSUNNY   54  46  72 W8        30.12F
GREENVILLE     CLOUDY    52  46  82 W3        30.14S
ROCKWALL       FAIR      51  47  86 W7        30.13S
TERRELL        CLOUDY    52  46  80 SW6       30.13F
WAXAHACHIE     FAIR      54  47  76 SW6       30.12F
CLEBURNE       FAIR      59  45  58 SW8       30.12F
GRANBURY       FAIR      65  45  48 W9G16     30.12F
$$

TXZ083>090-098>101-113>116-127>130-139>142-154-155-172000-
WESTERN NORTH TEXAS

CITY           SKY/WX    TMP DP  RH WIND       PRES   REMARKS
WICHITA FALLS  FAIR      60  39  45 N13G22    30.13S
WF-KICKAPOO    FAIR      57  39  50 N14G22    30.16S
VERNON         FAIR      56  31  39 NE13G21   30.17R
ABILENE        FAIR      66  43  43 NW18G24   30.11F
ABILENE-DYESS  FAIR      65  44  44 N15G22    30.11F
GRAHAM           N/A     64  43  46 NW14G22   30.10F
BRECKENRIDGE   FAIR      67  41  39 N13G20    30.10F HAZE
CISCO          FAIR      66  43  42 W13G24    30.11F
EASTLAND       FAIR      65  44  45 W13       30.10F
RANGER         FAIR      65  45  48 NW10G17   30.10F
MINERAL WELLS  FAIR      65  45  48 W14       30.09F
STEPHENVILLE   FAIR      64  40  42 SW6       30.13F
COMANCHE       FAIR      65  43  44 NW6       30.11F
BROWNWOOD      FAIR      66  41  39 NW7       30.11F
COLEMAN        FAIR      68  44  41 NW7       30.11F
$$

TXZ143>147-156>162-174-175-172000-
CENTRAL TEXAS

CITY           SKY/WX    TMP DP  RH WIND       PRES   REMARKS
WACO           CLOUDY    52  39  61 CALM      30.15S
WACO-MCGREGOR  CLOUDY    53  40  61 CALM      30.15F
HILLSBORO      CLOUDY    51  43  74 SW5       30.13F
CORSICANA      LGT RAIN  48  46  93 S7        30.14F FOG
MEXIA          CLOUDY    50  41  72 SE6       30.13F
HEARNE         CLOUDY    55  47  72 N7        30.15S
CAMERON        CLOUDY    55  47  73 N6        30.14S
TEMPLE         CLOUDY    56  41  57 NW7       30.15S
KILLEEN        CLOUDY    58  38  48 N5        30.12F
KILLEEN-SKYLRK CLOUDY    58  39  49 N7        30.14F
FORT HOOD      CLOUDY    56  38  51 N6        30.10F
GATESVILLE     CLOUDY    55  37  50 CALM      30.15F
HAMILTON       CLOUDY    63  39  41 W6        30.13F
LAMPASAS       CLOUDY    58  38  48 W3        30.12F
$$

TXZ095>097-106>112-122>126-135>138-148>153-164>167-172000-
EAST TEXAS

CITY           SKY/WX    TMP DP  RH WIND       PRES   REMARKS
PARIS          CLOUDY    49  45  86 W8        30.12F
SULPHUR SPRNGS CLOUDY    49  48  94 W5        30.16R
MOUNT PLEASANT CLOUDY    49  47  94 W5        30.14F
GILMER         DRIZZLE   47  46  99 CALM      30.13F
MINEOLA        CLOUDY    50  48  93 NW5       30.13F
TYLER          LGT RAIN  48  47  96 S7        30.12F FOG
LONGVIEW       RAIN      49  49 100 CALM      30.13F VSB 1
MARSHALL       CLOUDY    50  48  92 CALM      30.15F
ATHENS         DRIZZLE   45  45 100 S3        30.12F
PALESTINE      LGT RAIN  50  46  85 CALM      30.17F
JACKSONVILLE   RAIN      48  47  94 CALM      30.16F
HENDERSON      RAIN      48  47  95 CALM      30.15F
CENTER         CLOUDY    52  48  86 NW10G17   30.15R
NACOGDOCHES    CLOUDY    51  49  92 N10       30.15R
LUFKIN         CLOUDY    56  53  90 NW9       30.12R
$$

SUPPLEMENTAL OBSERVATIONS (NWS FORT WORTH AREA)

CITY           SKY/WX    TMP DP  RH WIND       PRES   REMARKS
CADDO GRASSLND   N/A     55  45  67 NW3         N/A
PAT MAYSE LAKE   N/A     48  45  87 S2          N/A
GREENVILLE       N/A     48  45  87 NW5         N/A
CEDAR HILL       N/A     57  45  62 SW7         N/A
LBJ GRASSLAND    N/A     61  43  51 W9          N/A
POSSUM KINGDOM   N/A     63  43  48 NW13        N/A
GRANBURY         N/A     64  43  45 W10         N/A
MCGREGOR         N/A     54  37  54 S2          N/A
TEMPLE           N/A     57  41  54 NW9         N/A
$$

SUPPLEMENTAL OBSERVATIONS (NWS NORMAN AREA)

CITY           SKY/WX    TMP DP  RH WIND       PRES   REMARKS
GOODLETT         N/A     57  32  38 N17G24    30.16S
ODELL            N/A     52  38  58 N14       30.18R
CROWELL          N/A     59  32  35 NE21      30.17S
KNOX CITY        N/A     62  36  38 N16       30.15R
SEYMOUR          N/A     62  39  42 N17       30.14R
MILLERS CREEK    N/A     63  41  45 N10G20      N/A
$$

SUPPLEMENTAL OBSERVATIONS (NWS SAN ANGELO AREA)

CITY           SKY/WX    TMP DP  RH WIND       PRES   REMARKS
WEINERT          N/A     63  40  43 N12       30.14S
HASKELL          N/A     62  40  43 N15G24    30.12F
THROCKMORTON     N/A     61  42  49 NW13      30.13F
STAMFORD         N/A     61  44  53 N14       30.13F
CLYDE            N/A     65  43  44 NW13G18   30.12S
HAMBY            N/A     66  43  42 NW12G20     N/A
IVIE RESERVOIR   N/A     66  41  39 NW8         N/A
COLORADO BEND    N/A     63  39  42 W1G12       N/A
$$

SUPPLEMENTAL OBSERVATIONS (NWS SHREVEPORT AREA)

CITY           SKY/WX    TMP DP  RH WIND       PRES   REMARKS
CLARKSVILLE      N/A     50  46  87 W3          N/A
TEXARKANA        N/A     52  50  93 SW3         N/A
LINDEN           N/A     50  46  87 SW1         N/A
GILMER           N/A     48  46  93 W2          N/A
HENDERSON        N/A     48  46  93 S3          N/A
LUFKIN           N/A     54  48  82 MISG        N/A
N SABINE NF      N/A     54  50  87 MISG        N/A
S SABINE NF      N/A     61  57  88 NE5         N/A
$$

SUPPLEMENTAL OBSERVATIONS ARE A COLLECTION OF AUTOMATED INSTRUMENTS
THAT ARE MAINTAINED BY A VARIETY OF FEDERAL AND STATE AGENCIES.
CERTAIN ELEMENTS...SUCH AS HUMIDITY VALUES AND SUSTAINED WIND
SPEEDS...MAY BE APPROXIMATED.





USA.gov is the U.S. government's official web portal to all federal, state and local government web resources and services.